timestamp,surface_pressure_avg,surface_temp_avg,battery_voltage,lat,long
2022-10-12 00:09:01+00:00,344.793,13.8,11.77,47.84626,-54.09684
2022-10-12 00:19:00+00:00,348.4362,13.8,11.77,47.84626,-54.09684
2022-10-12 00:29:00+00:00,346.3579,13.8,11.77,47.84626,-54.09684
2022-10-12 00:39:00+00:00,348.3864,13.8,11.77,47.84626,-54.09684
2022-10-12 00:49:00+00:00,352.0563,13.8,11.77,47.84626,-54.09684
2022-10-12 00:59:00+00:00,351.3497,13.8,11.77,47.84626,-54.09684
2022-10-12 01:09:00+00:00,348.1263,13.8,11.77,47.84626,-54.09684
2022-10-12 01:19:00+00:00,349.7646,13.8,11.77,47.84626,-54.09684
2022-10-12 01:29:00+00:00,350.5679,13.8,11.77,47.84626,-54.09684
2022-10-12 01:39:00+00:00,346.0113,13.8,11.77,47.84626,-54.09684
2022-10-12 01:49:00+00:00,341.6013,13.8,11.77,47.84626,-54.09684
2022-10-12 01:59:00+00:00,338.0496,13.8,11.77,47.84626,-54.09684
2022-10-12 02:09:00+00:00,334.9213,13.8,11.77,47.84626,-54.09684
2022-10-12 02:19:00+00:00,332.838,13.8,11.77,47.84626,-54.09684
2022-10-12 02:29:00+00:00,328.0513,13.79,11.77,47.84626,-54.09684
2022-10-12 02:39:00+00:00,321.5179,13.78,11.77,47.84626,-54.09684
2022-10-12 02:49:00+00:00,317.4747,13.79,11.77,47.84626,-54.09684
2022-10-12 02:59:00+00:00,314.7647,13.78,11.77,47.84626,-54.09684
2022-10-12 03:09:00+00:00,306.063,13.77,11.77,47.84626,-54.09684
2022-10-12 03:19:00+00:00,297.7297,13.76,11.77,47.84626,-54.09684
2022-10-12 03:29:00+00:00,292.3846,13.77,11.77,47.84626,-54.09684
2022-10-12 03:39:00+00:00,283.5047,13.77,11.77,47.84626,-54.09684
2022-10-12 03:49:00+00:00,271.5814,13.77,11.77,47.84626,-54.09684
2022-10-12 03:59:00+00:00,263.8264,13.77,11.77,47.84626,-54.09684
2022-10-12 04:09:00+00:00,256.7514,13.77,11.77,47.84626,-54.09684
2022-10-12 04:19:00+00:00,243.6431,13.77,11.77,47.84626,-54.09684
2022-10-12 04:29:00+00:00,233.8597,13.76,11.77,47.84626,-54.09684
2022-10-12 04:39:00+00:00,229.7547,13.74,11.77,47.84626,-54.09684
2022-10-12 04:49:00+00:00,222.0981,13.72,11.77,47.84626,-54.09684
2022-10-12 04:59:00+00:00,210.6181,13.7,11.77,47.84626,-54.09684
2022-10-12 05:09:00+00:00,202.9681,13.7,11.77,47.84626,-54.09684
2022-10-12 05:19:00+00:00,197.4781,13.7,11.77,47.84626,-54.09684
2022-10-12 05:29:00+00:00,189.1515,13.7,11.77,47.84626,-54.09684
2022-10-12 05:39:00+00:00,182.0465,13.7,11.77,47.84626,-54.09684
2022-10-12 05:49:00+00:00,179.4065,13.7,11.77,47.84626,-54.09684
2022-10-12 05:59:00+00:00,175.1665,13.7,11.77,47.84626,-54.09684
2022-10-12 06:09:00+00:00,170.9581,13.7,11.77,47.84626,-54.09684
2022-10-12 06:19:00+00:00,170.9032,13.7,11.77,47.84626,-54.09684
2022-10-12 06:29:00+00:00,171.5865,13.7,11.77,47.84626,-54.09684
2022-10-12 06:39:00+00:00,170.9182,13.7,11.77,47.84626,-54.09684
2022-10-12 06:49:00+00:00,172.2898,13.7,11.77,47.84626,-54.09684
2022-10-12 06:59:00+00:00,175.2781,13.7,11.77,47.84626,-54.09684
2022-10-12 07:09:00+00:00,178.1015,13.7,11.77,47.84626,-54.09684
2022-10-12 07:19:01+00:00,180.7948,13.7,11.77,47.84626,-54.09684
2022-10-12 07:29:01+00:00,183.4882,13.7,11.77,47.84626,-54.09684
2022-10-12 07:39:01+00:00,188.7865,13.7,11.77,47.84626,-54.09684
2022-10-12 07:49:01+00:00,194.9248,13.7,11.77,47.84626,-54.09684
2022-10-12 07:59:01+00:00,201.0098,13.7,11.77,47.84626,-54.09684
2022-10-12 08:09:01+00:00,207.0581,13.7,11.77,47.84626,-54.09684
2022-10-12 08:19:00+00:00,213.6564,13.7,11.77,47.84626,-54.09684
2022-10-12 08:29:00+00:00,220.7398,13.7,11.77,47.84626,-54.09684
2022-10-12 08:39:00+00:00,227.0464,13.7,11.77,47.84626,-54.09684
2022-10-12 08:49:00+00:00,233.3931,13.7,11.77,47.84626,-54.09684
2022-10-12 08:59:00+00:00,238.2231,13.7,11.77,47.84626,-54.09684
2022-10-12 09:09:00+00:00,241.9547,13.7,11.77,47.84626,-54.09684
2022-10-12 09:19:00+00:00,248.6514,13.7,11.77,47.84626,-54.09684
2022-10-12 09:29:00+00:00,256.3548,13.67,11.77,47.84626,-54.09684
2022-10-12 09:39:00+00:00,258.9998,13.67,11.77,47.84626,-54.09684
2022-10-12 09:49:00+00:00,261.7781,13.67,11.77,47.84626,-54.09684
2022-10-12 09:59:00+00:00,268.7464,13.65,11.77,47.84626,-54.09684
2022-10-12 10:09:00+00:00,275.1647,13.62,11.77,47.84626,-54.09684
2022-10-12 10:19:00+00:00,274.9531,13.6,11.77,47.84626,-54.09684
2022-10-12 10:29:00+00:00,278.6931,13.6,11.77,47.84626,-54.09684
2022-10-12 10:39:00+00:00,287.6431,13.6,11.77,47.84626,-54.09684
2022-10-12 10:49:00+00:00,293.2113,13.6,11.77,47.84626,-54.09684
2022-10-12 10:59:00+00:00,295.863,13.6,11.77,47.84626,-54.09684
2022-10-12 11:09:00+00:00,306.188,13.6,11.77,47.84626,-54.09684
2022-10-12 11:19:00+00:00,318.288,13.6,12.09,47.84626,-54.09684
2022-10-12 11:29:00+00:00,323.838,13.6,12.09,47.84626,-54.09684
2022-10-12 11:39:00+00:00,331.8864,13.59,12.09,47.84626,-54.09684
2022-10-12 11:49:00+00:00,343.5080000000001,13.56,12.09,47.84626,-54.09684
2022-10-12 11:59:00+00:00,350.2147,13.5,12.09,47.84626,-54.09684
2022-10-12 12:09:00+00:00,352.9062,13.54,12.09,47.84626,-54.09684
2022-10-12 12:19:00+00:00,359.50300000000016,13.56,12.33,47.84626,-54.09684
2022-10-12 12:29:00+00:00,365.1347,13.55,12.33,47.84626,-54.09684
2022-10-12 12:39:00+00:00,366.4613,13.59,12.33,47.84626,-54.09684
2022-10-12 12:49:00+00:00,368.4679,13.6,12.33,47.84626,-54.09684
2022-10-12 12:59:00+00:00,374.8079,13.59,12.33,47.84626,-54.09684
2022-10-12 13:09:00+00:00,376.6913,13.6,12.33,47.84626,-54.09684
2022-10-12 13:19:00+00:00,375.5778,13.6,12.33,47.84626,-54.09684
2022-10-12 13:29:00+00:00,378.0846,13.6,12.33,47.84626,-54.09684
2022-10-12 13:39:00+00:00,377.3046,13.6,12.33,47.84626,-54.09684
2022-10-12 13:49:00+00:00,372.4896,13.6,12.33,47.84626,-54.09684
2022-10-12 13:59:00+00:00,371.5663,13.65,12.33,47.84626,-54.09684
2022-10-12 14:09:00+00:00,368.8813,13.66,12.33,47.84626,-54.09684
2022-10-12 14:19:00+00:00,361.7212,13.66,12.33,47.84626,-54.09684
2022-10-12 14:29:00+00:00,355.9046,13.66,12.33,47.84626,-54.09684
2022-10-12 14:39:00+00:00,355.6114,13.66,12.33,47.84626,-54.09684
2022-10-12 14:49:00+00:00,350.3329,13.66,12.33,47.84626,-54.09684
2022-10-12 14:59:00+00:00,343.913,13.67,12.33,47.84626,-54.09684
2022-10-12 15:09:00+00:00,341.6846,13.68,12.33,47.84626,-54.09684
2022-10-12 15:19:01+00:00,336.4480000000001,13.69,12.33,47.84626,-54.09684
2022-10-12 15:29:01+00:00,327.5229,13.7,12.33,47.84626,-54.09684
2022-10-12 15:39:01+00:00,319.8363,13.7,12.33,47.84626,-54.09684
2022-10-12 15:49:01+00:00,315.113,13.7,12.33,47.84626,-54.09684
2022-10-12 15:59:01+00:00,305.8264,13.7,12.33,47.84626,-54.09684
2022-10-12 16:09:01+00:00,294.3264,13.71,12.33,47.84626,-54.09684
2022-10-12 16:19:00+00:00,287.868,13.73,12.25,47.84626,-54.09684
2022-10-12 16:29:00+00:00,281.5047,13.76,12.25,47.84626,-54.09684
2022-10-12 16:39:00+00:00,270.8997,13.79,12.25,47.84626,-54.09684
2022-10-12 16:49:00+00:00,261.1931,13.8,12.25,47.84626,-54.09684
2022-10-12 16:59:00+00:00,254.7281,13.8,12.25,47.84626,-54.09684
2022-10-12 17:09:00+00:00,245.6797,13.8,12.25,47.84626,-54.09684
2022-10-12 17:19:01+00:00,235.2647,13.8,12.25,47.84626,-54.09684
2022-10-12 17:29:01+00:00,226.0581,13.84,12.25,47.84626,-54.09684
2022-10-12 17:39:01+00:00,218.9698,13.87,12.25,47.84626,-54.09684
2022-10-12 17:49:01+00:00,211.2448,13.88,12.25,47.84626,-54.09684
2022-10-12 17:59:01+00:00,202.0131,13.89,12.25,47.84626,-54.09684
2022-10-12 18:09:01+00:00,195.6331,13.89,12.25,47.84626,-54.09684
2022-10-12 18:19:00+00:00,191.7032,13.89,12.17,47.84626,-54.09684
2022-10-12 18:29:00+00:00,186.0865,13.9,12.17,47.84626,-54.09684
2022-10-12 18:39:00+00:00,180.9798,13.9,12.17,47.84626,-54.09684
2022-10-12 18:49:00+00:00,180.9998,13.9,12.17,47.84626,-54.09684
2022-10-12 18:59:00+00:00,181.3715,13.9,12.17,47.84626,-54.09684
2022-10-12 19:09:00+00:00,179.0815,13.9,12.17,47.84626,-54.09684
2022-10-12 19:19:00+00:00,181.5081,13.9,12.01,47.84626,-54.09684
2022-10-12 19:29:00+00:00,184.9965,13.9,12.01,47.84626,-54.09684
2022-10-12 19:39:00+00:00,186.2532,13.9,12.01,47.84626,-54.09684
2022-10-12 19:49:00+00:00,188.9248,13.9,12.01,47.84626,-54.09684
2022-10-12 19:59:00+00:00,194.4431,13.9,12.01,47.84626,-54.09684
2022-10-12 20:09:00+00:00,198.7781,13.9,12.01,47.84626,-54.09684
2022-10-12 20:19:00+00:00,201.2848,13.89,11.93,47.84626,-54.09684
2022-10-12 20:29:00+00:00,206.6448,13.89,11.93,47.84626,-54.09684
2022-10-12 20:39:00+00:00,212.6014,13.86,11.93,47.84626,-54.09684
2022-10-12 20:49:00+00:00,217.8081,13.83,11.93,47.84626,-54.09684
2022-10-12 20:59:00+00:00,222.9031,13.82,11.93,47.84626,-54.09684
2022-10-12 21:09:00+00:00,226.5547,13.8,11.93,47.84626,-54.09684
2022-10-12 21:19:00+00:00,232.0531,13.8,11.93,47.84626,-54.09684
2022-10-12 21:29:00+00:00,239.6448,13.8,11.93,47.84626,-54.09684
2022-10-12 21:39:00+00:00,243.4031,13.8,11.93,47.84626,-54.09684
2022-10-12 21:49:00+00:00,245.2798,13.8,11.93,47.84626,-54.09684
2022-10-12 21:59:00+00:00,249.3198,13.8,11.93,47.84626,-54.09684
2022-10-12 22:09:00+00:00,255.7448,13.8,11.93,47.84626,-54.09684
2022-10-12 22:19:00+00:00,258.9598,13.8,11.93,47.84626,-54.09684
2022-10-12 22:29:00+00:00,261.5014,13.8,11.93,47.84626,-54.09684
2022-10-12 22:39:00+00:00,268.4397,13.8,11.93,47.84626,-54.09684
2022-10-12 22:49:00+00:00,276.6664,13.79,11.93,47.84626,-54.09684
2022-10-12 22:59:00+00:00,281.1997,13.76,11.93,47.84626,-54.09684
2022-10-12 23:09:00+00:00,285.793,13.76,11.93,47.84626,-54.09684
2022-10-12 23:19:00+00:00,293.2314,13.7,11.93,47.84626,-54.09684
2022-10-12 23:29:00+00:00,299.4697,13.7,11.93,47.84626,-54.09684
2022-10-12 23:39:00+00:00,304.4496,13.7,11.93,47.84626,-54.09684
2022-10-12 23:49:00+00:00,310.1213,13.7,11.93,47.84626,-54.09684
2022-10-12 23:59:00+00:00,319.573,13.7,11.93,47.84626,-54.09684
